Regional Weather Roundup
Issued by NWS

Home | Current Version | Previous Version | Text Only | Print | Product List | Glossary Off
Versions: 1 2 3 4 5 6 7 8 9 10 11 12 13 14 15 16 17 18 19 20 21 22 23 24 25 26 27 28 29 30 31 32 33 34 35 36 37 38 39 40 41 42 43 44 45 46 47 48 49 50

000
ASUS43 KTOP 252359
RWRKS

WEATHER ROUNDUP FOR KANSAS
NATIONAL WEATHER SERVICE GOODLAND KS
600 PM CST TUE NOV 25 2014

NOTE:  "FAIR" INDICATES FEW OR NO CLOUDS BELOW 12,000 FEET WITH NO
SIGNIFICANT WEATHER AND/OR OBSTRUCTIONS TO VISIBILITY.

KSZ001>006-013>018-027>032-041>047-260100-
NORTHWEST KANSAS

CITY           SKY/WX    TMP DP  RH WIND       PRES   REMARKS
GOODLAND       CLOUDY    46  11  24 SW8       29.88R
6HR MIN TEMP:  43; 6HR MAX TEMP:  51;

HAYS           CLOUDY    46  16  29 S12       29.91S
HILL CITY      CLOUDY    48  13  24 SW8       29.88S
6HR MIN TEMP:  47; 6HR MAX TEMP:  51;

RUSSELL        CLOUDY    46  20  35 S14       29.91S
6HR MIN TEMP:  46; 6HR MAX TEMP:  50;

$$

KSZ061>065-074>080-084>089-260100-
SOUTHWEST KANSAS

CITY           SKY/WX    TMP DP  RH WIND       PRES   REMARKS
DODGE CITY     CLOUDY    43  15  32 S10       29.93F
6HR MIN TEMP:  43; 6HR MAX TEMP:  51;

ELKHART          N/A     46  14  27 W5          N/A
GARDEN CITY    MOCLDY    44  12  27 S6        29.90S
GREAT BEND     CLOUDY    46  19  34 S13       29.95S
LIBERAL        MOCLDY    43  12  28 SW8       29.94F
$$

KSZ066>073-081>083-090>101-260100-
SOUTHEAST KANSAS

CITY           SKY/WX    TMP DP  RH WIND       PRES   REMARKS
CHANUTE        PTCLDY    37  23  56 SE7       30.09F
6HR MIN TEMP:  37; 6HR MAX TEMP:  47;

COFFEYVILLE    CLEAR     40  23  50 S8        30.11F
6HR MIN TEMP:  40; 6HR MAX TEMP:  48;

HUTCHINSON     CLOUDY    45  27  49 S9        29.99F
6HR MIN TEMP:  45; 6HR MAX TEMP:  52;

MEDICINE LODGE   N/A     47  24  40 SE8       29.99F
NEWTON         CLOUDY    43  23  45 S9        30.03S
PARSONS        CLEAR     40  22  48 SE5       30.11F
6HR MIN TEMP:  40; 6HR MAX TEMP:  47;

WICHITA INTL   CLOUDY    43  27  53 S8        30.03F
6HR MIN TEMP:  43; 6HR MAX TEMP:  51;

WICHITA JABRA  CLOUDY    43  26  51 S9        30.03F
6HR MIN TEMP:  43; 6HR MAX TEMP:  49;

WICHITA MCCONL CLOUDY    43  25  48 S9        30.04S
WINFIELD       CLOUDY    41  29  62 S7        30.07F
6HR MIN TEMP:  41; 6HR MAX TEMP:  50;

$$

KSZ007>012-019>026-033>040-048>060-102>105-260100-
NORTHEAST KANSAS

CITY           SKY/WX    TMP DP  RH WIND       PRES   REMARKS
CONCORDIA      CLOUDY    46  21  37 S8        29.94F
6HR MIN TEMP:  44; 6HR MAX TEMP:  50;

EMPORIA        MOCLDY    39  23  52 S9        30.04F
6HR MIN TEMP:  39; 6HR MAX TEMP:  48;

LAWRENCE       MOCLDY    36  22  56 SE7       30.07F
6HR MIN TEMP:  34; 6HR MAX TEMP:  45;

MANHATTAN      CLOUDY    46  25  43 S8        30.00S
6HR MIN TEMP:  44; 6HR MAX TEMP:  50;

OLATHE IND     MOCLDY    35  19  52 S8        30.07F
6HR MIN TEMP:  34; 6HR MAX TEMP:  43;

OLATHE EXE     FAIR      34  19  54 S7        30.07F
6HR MIN TEMP:  34; 6HR MAX TEMP:  42;

SALINA         CLOUDY    47  26  44 S10       29.97F
6HR MIN TEMP:  47; 6HR MAX TEMP:  53;

TOPEKA BILLARD MOCLDY    40  24  53 SE6       30.05F
6HR MIN TEMP:  40; 6HR MAX TEMP:  48;

TOPEKA FORBES  MOCLDY    41  24  51 SE8       30.04F
6HR MIN TEMP:  40; 6HR MAX TEMP:  48;

$$


USA.gov is the U.S. government's official web portal to all federal, state and local government web resources and services.